CDT,Max TemperatureF,Mean TemperatureF,Min TemperatureF,Max Dew PointF,MeanDew PointF,Min DewpointF,Max Humidity, Mean Humidity, Min Humidity, Max Sea Level PressureIn, Mean Sea Level PressureIn, Min Sea Level PressureIn, Max VisibilityMiles, Mean VisibilityMiles, Min VisibilityMiles, Max Wind SpeedMPH, Mean Wind SpeedMPH, Max Gust SpeedMPH,PrecipitationIn, CloudCover, Events, WindDirDegrees
2013-6-1,72,66,61,67,56,51,93,73,55,29.95,29.79,29.67,,,,10,6,20,0.00,,,284
2013-6-2,64,58,50,51,48,46,86,69,52,30.08,30.04,29.96,,,,12,6,16,0.00,,,330
2013-6-3,72,58,46,53,49,43,93,67,45,30.10,30.03,29.94,,,,10,3,,0.00,,,129
2013-6-4,73,66,60,64,57,51,90,78,70,30.04,29.98,29.94,,,,10,6,17,0.11,,,131
2013-6-5,71,66,60,64,60,57,90,82,75,29.99,29.95,29.91,,,,9,4,,0.00,,,125
2013-6-6,75,67,59,61,54,48,90,66,40,29.96,29.93,29.90,,,,8,2,,0.00,,,342
2013-6-7,73,64,54,55,52,48,90,68,41,30.01,29.96,29.92,,,,9,2,,0.00,,,357
2013-6-8,80,66,52,56,53,49,93,62,40,29.96,29.88,29.79,,,,14,4,21,0.00,,,168
2013-6-9,75,68,63,63,60,57,93,79,61,29.84,29.80,29.76,,,,13,5,,0.60,,,206
2013-6-10,82,72,64,64,61,58,87,71,54,29.88,29.84,29.78,,,,8,4,,0.00,,,273
2013-6-11,90,78,68,68,65,61,81,62,46,29.87,29.80,29.74,,,,15,5,21,0.00,,,185
2013-6-12,93,84,73,70,68,58,79,60,45,29.87,29.75,29.70,,,,15,10,26,0.00,,,225
2013-6-13,84,74,64,63,58,54,84,60,40,30.04,29.99,29.90,,,,9,7,23,0.00,,,334
2013-6-14,81,72,62,65,63,59,90,76,54,30.07,29.99,29.92,,,,12,3,23,0.58,,,124
2013-6-15,84,75,66,74,67,62,96,82,66,30.05,29.96,29.88,,,,26,7,40,2.66,,,171
2013-6-16,82,72,64,72,67,63,93,82,65,29.96,29.94,29.90,,,,6,1,,0.01,,,42
2013-6-17,87,77,68,70,67,64,93,78,48,29.97,29.93,29.90,,,,6,2,,0.00,,,36
2013-6-18,82,74,64,66,62,57,93,69,45,30.02,29.98,29.94,,,,7,2,,0.00,,,316
2013-6-19,84,73,62,67,63,59,93,69,46,30.06,30.01,29.96,,,,9,3,17,0.00,,,133
2013-6-20,88,79,70,68,65,63,78,61,44,30.02,29.98,29.91,,,,14,7,25,0.00,,,156
2013-6-21,93,83,75,73,70,66,74,63,52,29.97,29.93,29.88,,,,16,9,25,0.00,,,177
2013-6-22,91,83,75,72,70,68,82,65,47,29.99,29.92,29.83,,,,15,7,26,0.00,,,177
2013-6-23,84,78,71,72,68,66,87,78,65,29.98,29.90,29.84,,,,14,7,25,0.30,,,146
2013-6-24,87,80,73,72,69,64,85,73,61,29.98,29.89,29.79,,,,13,6,22,0.00,,,168
2013-6-25,89,84,79,73,69,66,74,64,53,29.84,29.77,29.71,,,,15,9,21,0.01,,,181
2013-6-26,95,85,77,75,69,61,82,61,33,29.84,29.74,29.67,,,,12,6,20,0.00,,,258
2013-6-27,84,75,66,71,68,64,93,75,51,29.98,29.89,29.83,,,,7,1,,0.00,,,324
2013-6-28,88,76,66,68,60,54,90,56,33,29.88,29.85,29.79,,,,12,4,22,0.00,,,309
2013-6-29,82,74,66,64,58,55,78,59,44,29.85,29.79,29.75,,,,15,6,28,0.18,,,331
2013-6-30,80,70,62,59,57,54,84,64,45,30.03,29.95,29.86,,,,14,7,23,0.00,,,3